When you browse on this site, cookies collect data to enhance your experience and personalize the content and advertising you see.
Visit our Privacy Policy to learn more. By continuing to use the site, you agree to this use of cookies and data.
  • En España
  • Lista de países
  • Para 7 días
  • Temperatura del agua
  • El tiempo en el mapa
  • Informadores
  • user-avatar
    Iniciar sesión

    Tiempo cada hora Lebu

    Hoy, 5 Abril, Domingo

    Tiempo Temperatura Precipitaciones Viento Presión Humedad
    00:00 +9°C° 0 mm 7 mps 747 mmHg 81%
    01:00 +9°C° 0 mm 7 mps 747 mmHg 83%
    02:00 +8°C° 0 mm 7 mps 748 mmHg 84%
    03:00 +8°C° 0 mm 6 mps 748 mmHg 84%
    04:00 +8°C° 0 mm 6 mps 748 mmHg 85%
    05:00 +8°C° 0 mm 6 mps 748 mmHg 83%
    06:00 +8°C° 0 mm 5 mps 749 mmHg 81%
    07:00 +8°C° 0 mm 5 mps 749 mmHg 78%
    08:00 +12°C° 0 mm 4 mps 750 mmHg 69%
    09:00 +14°C° 0 mm 3 mps 750 mmHg 59%
    10:00 +17°C° 0 mm 3 mps 751 mmHg 50%
    11:00 +18°C° 0 mm 3 mps 751 mmHg 50%
    12:00 +18°C° 0 mm 4 mps 751 mmHg 50%
    13:00 +18°C° 0 mm 4 mps 752 mmHg 50%
    14:00 +18°C° 0 mm 4 mps 751 mmHg 52%
    15:00 +16°C° 0 mm 5 mps 751 mmHg 53%
    16:00 +16°C° 0 mm 5 mps 751 mmHg 55%
    17:00 +14°C° 0 mm 5 mps 752 mmHg 64%
    18:00 +13°C° 0 mm 5 mps 752 mmHg 73%
    19:00 +12°C° 0 mm 5 mps 752 mmHg 82%
    20:00 +10°C° 0 mm 5 mps 753 mmHg 84%
    21:00 +9°C° 0 mm 5 mps 753 mmHg 86%
    22:00 +8°C° 0 mm 5 mps 753 mmHg 88%
    23:00 +8°C° 0 mm 5 mps 753 mmHg 87%

    Mañana, 6 Abril, Lunes

    Tiempo Temperatura Precipitaciones Viento Presión Humedad
    00:00 +7°C° 0 mm 6 mps 753 mmHg 87%
    01:00 +7°C° 0 mm 6 mps 752 mmHg 86%
    02:00 +7°C° 0 mm 6 mps 752 mmHg 85%
    03:00 +5°C° 0 mm 6 mps 752 mmHg 84%
    04:00 +5°C° 0 mm 7 mps 752 mmHg 82%
    05:00 +6°C° 0 mm 7 mps 751 mmHg 75%
    06:00 +6°C° 0 mm 8 mps 751 mmHg 69%
    07:00 +7°C° 0 mm 8 mps 751 mmHg 62%
    08:00 +10°C° 0 mm 8 mps 751 mmHg 50%
    09:00 +13°C° 0 mm 9 mps 751 mmHg 39%
    10:00 +16°C° 0 mm 9 mps 751 mmHg 28%
    11:00 +17°C° 0 mm 9 mps 751 mmHg 31%
    12:00 +17°C° 0 mm 10 mps 750 mmHg 33%
    13:00 +17°C° 0 mm 10 mps 750 mmHg 36%
    14:00 +16°C° 0 mm 10 mps 750 mmHg 40%
    15:00 +16°C° 0 mm 10 mps 749 mmHg 44%
    16:00 +14°C° 0 mm 10 mps 749 mmHg 48%
    17:00 +13°C° 0 mm 9 mps 749 mmHg 54%
    18:00 +12°C° 0 mm 9 mps 749 mmHg 59%
    19:00 +10°C° 0 mm 9 mps 749 mmHg 64%
    20:00 +10°C° 0 mm 9 mps 749 mmHg 64%
    21:00 +9°C° 0 mm 8 mps 749 mmHg 65%
    22:00 +9°C° 0 mm 8 mps 749 mmHg 65%
    23:00 +7°C° 0 mm 8 mps 748 mmHg 65%

    Pasado mañana, 7 Abril, Martes

    Tiempo Temperatura Precipitaciones Viento Presión Humedad
    00:00 +7°C° 0 mm 8 mps 748 mmHg 65%
    01:00 +6°C° 0 mm 8 mps 748 mmHg 65%
    02:00 +6°C° 0 mm 8 mps 747 mmHg 63%
    03:00 +6°C° 0 mm 8 mps 747 mmHg 61%
    04:00 +6°C° 0 mm 8 mps 747 mmHg 60%
    05:00 +6°C° 0 mm 8 mps 747 mmHg 60%
    06:00 +8°C° 0 mm 7 mps 746 mmHg 60%
    07:00 +8°C° 0 mm 7 mps 746 mmHg 60%
    08:00 +11°C° 0 mm 7 mps 746 mmHg 52%
    09:00 +15°C° 0 mm 7 mps 746 mmHg 44%
    10:00 +20°C° 0 mm 7 mps 746 mmHg 35%
    11:00 +20°C° 0 mm 7 mps 746 mmHg 38%
    12:00 +20°C° 0 mm 7 mps 746 mmHg 40%
    13:00 +20°C° 0 mm 7 mps 745 mmHg 43%
    14:00 +20°C° 0 mm 7 mps 745 mmHg 47%
    15:00 +18°C° 0 mm 7 mps 745 mmHg 51%
    16:00 +17°C° 0 mm 6 mps 744 mmHg 54%
    17:00 +15°C° 0 mm 6 mps 744 mmHg 64%
    18:00 +13°C° 0 mm 5 mps 745 mmHg 73%
    19:00 +10°C° 0 mm 5 mps 745 mmHg 82%
    20:00 +11°C° 0 mm 4 mps 745 mmHg 81%
    21:00 +11°C° 0 mm 4 mps 745 mmHg 81%
    22:00 +10°C° 0 mm 4 mps 745 mmHg 80%
    23:00 +10°C° 0 mm 3 mps 745 mmHg 77%

    8 Abril, Miércoles

    Tiempo Temperatura Precipitaciones Viento Presión Humedad
    00:00 +10°C° 0 mm 3 mps 745 mmHg 75%
    01:00 +10°C° 0 mm 2 mps 745 mmHg 72%
    02:00 +10°C° 0 mm 2 mps 744 mmHg 69%
    03:00 +10°C° 0 mm 2 mps 744 mmHg 66%
    04:00 +10°C° 0 mm 2 mps 744 mmHg 63%
    05:00 +12°C° 0 mm 1 mps 745 mmHg 59%
    06:00 +12°C° 0 mm 1 mps 745 mmHg 55%
    07:00 +12°C° 0 mm 1 mps 745 mmHg 51%
    08:00 +16°C° 0 mm 2 mps 745 mmHg 43%
    09:00 +19°C° 0 mm 2 mps 745 mmHg 36%
    10:00 +24°C° 0 mm 2 mps 745 mmHg 28%
    11:00 +24°C° 0 mm 3 mps 745 mmHg 32%
    12:00 +22°C° 0 mm 3 mps 746 mmHg 36%
    13:00 +22°C° 0 mm 3 mps 746 mmHg 40%
    14:00 +21°C° 0 mm 3 mps 746 mmHg 43%
    15:00 +20°C° 0 mm 3 mps 746 mmHg 46%
    16:00 +19°C° 0 mm 3 mps 746 mmHg 49%
    17:00 +17°C° 0 mm 3 mps 746 mmHg 61%
    18:00 +13°C° 0 mm 4 mps 747 mmHg 74%
    19:00 +11°C° 0 mm 4 mps 747 mmHg 86%
    20:00 +11°C° 0 mm 4 mps 747 mmHg 87%
    21:00 +11°C° 0 mm 4 mps 747 mmHg 88%
    22:00 +11°C° 0 mm 4 mps 747 mmHg 89%
    23:00 +10°C° 0 mm 4 mps 747 mmHg 87%

    9 Abril, Jueves

    Tiempo Temperatura Precipitaciones Viento Presión Humedad
    00:00 +10°C° 0 mm 4 mps 747 mmHg 86%
    01:00 +10°C° 0 mm 4 mps 747 mmHg 85%
    02:00 +8°C° 0 mm 4 mps 747 mmHg 85%
    03:00 +8°C° 0 mm 4 mps 747 mmHg 85%
    04:00 +8°C° 0 mm 4 mps 746 mmHg 85%
    05:00 +8°C° 0 mm 4 mps 746 mmHg 83%
    06:00 +8°C° 0 mm 4 mps 747 mmHg 82%
    07:00 +10°C° 0 mm 4 mps 747 mmHg 80%
    08:00 +12°C° 0 mm 4 mps 747 mmHg 72%
    09:00 +15°C° 0 mm 4 mps 747 mmHg 64%
    10:00 +19°C° 0 mm 4 mps 747 mmHg 55%
    11:00 +19°C° 0 mm 4 mps 747 mmHg 55%
    12:00 +20°C° 0 mm 4 mps 747 mmHg 55%
    13:00 +21°C° 0 mm 4 mps 747 mmHg 55%
    14:00 +19°C° 0 mm 4 mps 747 mmHg 60%
    15:00 +18°C° 0 mm 4 mps 747 mmHg 65%
    16:00 +17°C° 0 mm 4 mps 747 mmHg 71%
    17:00 +15°C° 0 mm 4 mps 747 mmHg 79%
    18:00 +13°C° 0 mm 4 mps 747 mmHg 87%
    19:00 +11°C° 0 mm 3 mps 747 mmHg 95%
    20:00 +11°C° 0 mm 3 mps 747 mmHg 94%
    21:00 +11°C° 0 mm 3 mps 747 mmHg 94%
    22:00 +10°C° 0 mm 3 mps 747 mmHg 93%
    23:00 +10°C° 0 mm 3 mps 747 mmHg 93%

    10 Abril, Viernes

    Tiempo Temperatura Precipitaciones Viento Presión Humedad
    00:00 +10°C° 0 mm 2 mps 747 mmHg 92%
    01:00 +9°C° 0 mm 2 mps 747 mmHg 92%
    02:00 +9°C° 0 mm 2 mps 747 mmHg 92%
    03:00 +9°C° 0 mm 2 mps 747 mmHg 92%
    04:00 +9°C° 0 mm 2 mps 747 mmHg 92%
    05:00 +9°C° 0 mm 2 mps 747 mmHg 91%
    06:00 +10°C° 0 mm 2 mps 746 mmHg 89%
    07:00 +10°C° 0 mm 2 mps 746 mmHg 87%
    08:00 +14°C° 0 mm 2 mps 747 mmHg 77%
    09:00 +16°C° 0 mm 2 mps 747 mmHg 67%
    10:00 +19°C° 0 mm 2 mps 747 mmHg 56%
    11:00 +19°C° 0 mm 3 mps 747 mmHg 55%
    12:00 +20°C° 0 mm 3 mps 747 mmHg 53%
    13:00 +21°C° 0 mm 3 mps 746 mmHg 52%
    14:00 +20°C° 0 mm 4 mps 746 mmHg 59%
    15:00 +19°C° 0 mm 4 mps 746 mmHg 66%
    16:00 +17°C° 0 mm 5 mps 746 mmHg 73%
    17:00 +16°C° 0 mm 5 mps 747 mmHg 80%
    18:00 +15°C° 0 mm 6 mps 747 mmHg 87%
    19:00 +14°C° 0 mm 7 mps 747 mmHg 94%
    20:00 +12°C° 0 mm 7 mps 747 mmHg 90%
    21:00 +13°C° 0 mm 6 mps 747 mmHg 86%
    22:00 +13°C° 0 mm 6 mps 748 mmHg 82%
    23:00 +13°C° 0 mm 6 mps 748 mmHg 80%
    Mostrar más